OAL114 LIBR-LFMN

Flight info

Callsign OAL114
Flight time 1h 22m
Altitude FL340
Route ROBOT MOLUX TAQ DOBIM KERIT
Aircraft B738/M-SDE3FGHIRWY/LB1

Departure

Time 2026-04-24 08:58
Airport Brindisi Airport (LIBR)

Arrival

Time 2026-04-24 10:20
Airport Nice-Côte d'Azur Airport (LFMN)
Time Latitude Longitude Altitude Speed Heading
2026-04-24 08:45 40.65786 17.94069 40 ft 0 kts 322°
2026-04-24 08:50 40.65774 17.94082 43 ft 2 kts 322°
2026-04-24 08:50 40.65761 17.94094 40 ft 2 kts 322°
2026-04-24 08:51 40.65749 17.94107 43 ft 2 kts 322°
2026-04-24 08:51 40.65737 17.94120 41 ft 2 kts 322°
2026-04-24 08:51 40.65724 17.94132 42 ft 2 kts 322°
2026-04-24 08:51 40.65711 17.94143 37 ft 2 kts 352°
2026-04-24 08:52 40.65696 17.94143 39 ft 2 kts 27°
2026-04-24 08:52 40.65687 17.94135 37 ft 0 kts 50°
2026-04-24 08:53 40.65688 17.94137 37 ft 1 kts 50°
2026-04-24 08:53 40.65707 17.94163 38 ft 7 kts 46°
2026-04-24 08:53 40.65751 17.94229 43 ft 10 kts 51°
2026-04-24 08:53 40.65802 17.94316 42 ft 13 kts 53°
2026-04-24 08:54 40.65858 17.94412 42 ft 13 kts 51°
2026-04-24 08:54 40.65913 17.94504 38 ft 13 kts 52°
2026-04-24 08:54 40.65969 17.94600 38 ft 13 kts 52°
2026-04-24 08:54 40.66022 17.94694 42 ft 13 kts 67°
2026-04-24 08:55 40.65992 17.94793 42 ft 12 kts 135°
2026-04-24 08:55 40.65929 17.94871 41 ft 12 kts 136°
2026-04-24 08:55 40.65866 17.94948 43 ft 12 kts 138°
2026-04-24 08:55 40.65804 17.95021 43 ft 12 kts 137°
2026-04-24 08:56 40.65745 17.95093 43 ft 12 kts 137°
2026-04-24 08:56 40.65680 17.95148 43 ft 11 kts 179°
2026-04-24 08:56 40.65619 17.95090 42 ft 11 kts 231°
2026-04-24 08:56 40.65600 17.94993 40 ft 11 kts 289°
2026-04-24 08:57 40.65652 17.94919 41 ft 11 kts 319°
2026-04-24 08:57 40.65796 17.94748 39 ft 57 kts 317°
2026-04-24 08:57 40.66238 17.94205 40 ft 115 kts 317°
2026-04-24 08:57 40.66933 17.93343 107 ft 154 kts 317°
2026-04-24 08:58 40.67721 17.92381 738 ft 151 kts 319°
2026-04-24 08:58 40.68534 17.91427 1261 ft 161 kts 321°
2026-04-24 08:58 40.69369 17.90437 1848 ft 168 kts 321°
2026-04-24 08:58 40.70308 17.89325 2110 ft 195 kts 320°
2026-04-24 08:59 40.71366 17.88062 2330 ft 215 kts 320°
2026-04-24 08:59 40.72517 17.86683 2555 ft 234 kts 319°
2026-04-24 08:59 40.73747 17.85204 3067 ft 245 kts 319°
2026-04-24 08:59 40.75012 17.83682 3818 ft 247 kts 320°
2026-04-24 09:00 40.76200 17.82025 4526 ft 255 kts 304°
2026-04-24 09:00 40.76753 17.79766 5225 ft 267 kts 277°
2026-04-24 09:00 40.76496 17.77318 5946 ft 277 kts 252°
2026-04-24 09:00 40.75457 17.75148 6607 ft 286 kts 228°
2026-04-24 09:01 40.74055 17.73255 7212 ft 294 kts 226°
2026-04-24 09:01 40.72618 17.71364 7991 ft 293 kts 226°
2026-04-24 09:01 40.71155 17.69460 8620 ft 299 kts 226°
2026-04-24 09:01 40.69762 17.67422 9333 ft 300 kts 240°
2026-04-24 09:02 40.69077 17.64867 9942 ft 298 kts 267°
2026-04-24 09:02 40.69157 17.62157 10447 ft 302 kts 281°
2026-04-24 09:02 40.69496 17.59333 10592 ft 323 kts 283°
2026-04-24 09:02 40.69883 17.56329 10754 ft 343 kts 282°
2026-04-24 09:03 40.70273 17.53160 11060 ft 357 kts 281°
2026-04-24 09:03 40.70658 17.49900 11556 ft 364 kts 282°
2026-04-24 09:03 40.71053 17.46593 12158 ft 367 kts 283°
2026-04-24 09:03 40.71657 17.43327 12804 ft 369 kts 290°
2026-04-24 09:04 40.72420 17.40090 13438 ft 372 kts 291°
2026-04-24 09:04 40.73237 17.36836 14037 ft 377 kts 292°
2026-04-24 09:04 40.74066 17.33550 14683 ft 379 kts 291°
2026-04-24 09:04 40.74887 17.30250 15387 ft 380 kts 291°
2026-04-24 09:05 40.75698 17.26933 16091 ft 382 kts 291°
2026-04-24 09:05 40.76501 17.23597 16775 ft 383 kts 291°
2026-04-24 09:05 40.77302 17.20237 17416 ft 386 kts 291°
2026-04-24 09:05 40.78102 17.16851 18060 ft 389 kts 291°
2026-04-24 09:06 40.78905 17.13443 18659 ft 391 kts 291°
2026-04-24 09:06 40.79710 17.10009 19188 ft 394 kts 291°
2026-04-24 09:06 40.80521 17.06545 19675 ft 398 kts 290°
2026-04-24 09:06 40.81338 17.03046 20149 ft 402 kts 290°
2026-04-24 09:07 40.82161 16.99518 20662 ft 404 kts 290°
2026-04-24 09:07 40.82988 16.95965 21159 ft 407 kts 290°
2026-04-24 09:07 40.84658 16.88770 22112 ft 414 kts 290°
2026-04-24 09:08 40.85502 16.85128 22573 ft 417 kts 290°
2026-04-24 09:08 40.86351 16.81457 23026 ft 420 kts 290°
2026-04-24 09:08 40.87206 16.77756 23474 ft 424 kts 290°
2026-04-24 09:08 40.88065 16.74027 23878 ft 427 kts 290°
2026-04-24 09:09 40.88930 16.70270 24253 ft 429 kts 290°
2026-04-24 09:09 40.89798 16.66494 24649 ft 431 kts 290°
2026-04-24 09:09 40.90666 16.62705 25046 ft 433 kts 290°
2026-04-24 09:09 40.91539 16.58893 25388 ft 436 kts 290°
2026-04-24 09:10 40.92418 16.55051 25718 ft 439 kts 290°
2026-04-24 09:10 40.93301 16.51182 26052 ft 442 kts 289°
2026-04-24 09:10 40.94188 16.47291 26395 ft 444 kts 289°
2026-04-24 09:10 40.95077 16.43380 26734 ft 446 kts 289°
2026-04-24 09:11 40.95970 16.39449 27065 ft 449 kts 289°
2026-04-24 09:11 40.96867 16.35492 27365 ft 451 kts 289°
2026-04-24 09:11 40.97768 16.31509 27649 ft 454 kts 289°
2026-04-24 09:11 40.98673 16.27499 27932 ft 457 kts 289°
2026-04-24 09:12 40.99583 16.23465 28219 ft 460 kts 289°
2026-04-24 09:12 41.00495 16.19409 28526 ft 462 kts 289°
2026-04-24 09:12 41.01410 16.15334 28810 ft 464 kts 289°
2026-04-24 09:12 41.02328 16.11239 29086 ft 466 kts 289°
2026-04-24 09:13 41.03248 16.07126 29374 ft 468 kts 289°
2026-04-24 09:13 41.04171 16.02995 29683 ft 469 kts 289°
2026-04-24 09:13 41.05092 15.98862 30070 ft 468 kts 289°
2026-04-24 09:13 41.06010 15.94733 30410 ft 468 kts 289°
2026-04-24 09:14 41.06927 15.90601 30703 ft 468 kts 289°
2026-04-24 09:14 41.07842 15.86474 31054 ft 467 kts 289°
2026-04-24 09:14 41.08751 15.82363 31428 ft 465 kts 289°
2026-04-24 09:14 41.09655 15.78264 31772 ft 464 kts 289°
2026-04-24 09:15 41.10557 15.74172 32078 ft 463 kts 289°
2026-04-24 09:15 41.11457 15.70083 32395 ft 462 kts 289°
2026-04-24 09:15 41.12353 15.66004 32726 ft 461 kts 289°
2026-04-24 09:15 41.13243 15.61940 33050 ft 459 kts 289°
2026-04-24 09:16 41.14131 15.57883 33328 ft 459 kts 289°
2026-04-24 09:16 41.15018 15.53823 33584 ft 459 kts 289°
2026-04-24 09:16 41.15903 15.49765 33883 ft 458 kts 289°
2026-04-24 09:16 41.16783 15.45715 34173 ft 458 kts 289°
2026-04-24 09:17 41.18554 15.37558 34158 ft 462 kts 289°
2026-04-24 09:17 41.20313 15.29412 34156 ft 456 kts 289°
2026-04-24 09:18 41.22051 15.21339 34159 ft 456 kts 288°
2026-04-24 09:18 41.23786 15.13251 34160 ft 457 kts 288°
2026-04-24 09:19 41.25519 15.05142 34160 ft 457 kts 288°
2026-04-24 09:19 41.27247 14.97022 34162 ft 458 kts 288°
2026-04-24 09:20 41.29264 14.87506 34147 ft 459 kts 288°
2026-04-24 09:20 41.30710 14.80714 34160 ft 459 kts 290°
2026-04-24 09:21 41.32986 14.72825 34165 ft 457 kts 295°
2026-04-24 09:21 41.35497 14.65055 34163 ft 459 kts 296°
2026-04-24 09:22 41.37993 14.57250 34156 ft 460 kts 295°
2026-04-24 09:22 41.40447 14.49402 34161 ft 460 kts 295°
2026-04-24 09:23 41.42878 14.41533 34151 ft 460 kts 295°
2026-04-24 09:23 41.45297 14.33671 34143 ft 459 kts 295°
2026-04-24 09:24 41.47707 14.25817 34151 ft 458 kts 295°
2026-04-24 09:24 41.50109 14.17971 34140 ft 458 kts 295°
2026-04-24 09:25 41.52504 14.10128 34154 ft 457 kts 295°
2026-04-24 09:25 41.54892 14.02283 34148 ft 458 kts 295°
2026-04-24 09:26 41.57279 13.94417 34151 ft 458 kts 295°
2026-04-24 09:26 41.59662 13.86544 34159 ft 458 kts 295°
2026-04-24 09:27 41.62040 13.78662 34168 ft 459 kts 295°
2026-04-24 09:27 41.64419 13.70752 34165 ft 461 kts 295°
2026-04-24 09:28 41.66803 13.62799 34161 ft 462 kts 295°
2026-04-24 09:28 41.69186 13.54830 34163 ft 463 kts 294°
2026-04-24 09:29 41.71567 13.46841 34146 ft 463 kts 294°
2026-04-24 09:29 41.73941 13.38847 34160 ft 464 kts 294°
2026-04-24 09:30 41.76713 13.29487 34161 ft 465 kts 294°
2026-04-24 09:30 41.78691 13.22789 34158 ft 465 kts 294°
2026-04-24 09:31 41.81060 13.14740 34166 ft 465 kts 294°
2026-04-24 09:31 41.83425 13.06679 34164 ft 465 kts 294°
2026-04-24 09:32 41.85783 12.98619 34176 ft 466 kts 294°
2026-04-24 09:32 41.88141 12.90533 34179 ft 466 kts 294°
2026-04-24 09:33 41.90492 12.82446 34181 ft 466 kts 294°
2026-04-24 09:33 41.92839 12.74347 34172 ft 466 kts 294°
2026-04-24 09:34 41.95180 12.66244 34187 ft 466 kts 294°
2026-04-24 09:34 41.97517 12.58129 34187 ft 467 kts 294°
2026-04-24 09:35 41.99850 12.50000 34186 ft 467 kts 294°
2026-04-24 09:35 42.02180 12.41857 34188 ft 468 kts 294°
2026-04-24 09:36 42.04507 12.33698 34170 ft 468 kts 294°
2026-04-24 09:36 42.06831 12.25526 34175 ft 469 kts 294°
2026-04-24 09:37 42.09151 12.17336 34243 ft 470 kts 294°
2026-04-24 09:37 42.11471 12.09126 34231 ft 470 kts 294°
2026-04-24 09:38 42.13785 12.00904 34208 ft 470 kts 293°
2026-04-24 09:38 42.16095 11.92672 34201 ft 471 kts 293°
2026-04-24 09:39 42.18401 11.84425 34171 ft 471 kts 293°
2026-04-24 09:39 42.20704 11.76169 34172 ft 471 kts 293°
2026-04-24 09:40 42.23315 11.68111 34183 ft 469 kts 300°
2026-04-24 09:40 42.26356 11.60358 34174 ft 468 kts 301°
2026-04-24 09:41 42.29419 11.52618 34185 ft 468 kts 301°
2026-04-24 09:41 42.32434 11.44832 34193 ft 469 kts 300°
2026-04-24 09:42 42.35420 11.37014 34188 ft 469 kts 300°
2026-04-24 09:42 42.38396 11.29182 34174 ft 469 kts 300°
2026-04-24 09:43 42.41369 11.21340 34188 ft 469 kts 300°
2026-04-24 09:43 42.44340 11.13485 34177 ft 470 kts 300°
2026-04-24 09:44 42.47310 11.05613 34188 ft 470 kts 300°
2026-04-24 09:44 42.50276 10.97729 34162 ft 471 kts 300°
2026-04-24 09:45 42.53238 10.89836 34182 ft 471 kts 300°
2026-04-24 09:45 42.56196 10.81930 34177 ft 471 kts 300°
2026-04-24 09:46 42.59149 10.74016 34175 ft 471 kts 300°
2026-04-24 09:46 42.62097 10.66094 34180 ft 471 kts 299°
2026-04-24 09:47 42.65039 10.58165 34180 ft 471 kts 299°
2026-04-24 09:47 42.67972 10.50238 34187 ft 471 kts 299°
2026-04-24 09:48 42.70901 10.42299 34196 ft 471 kts 299°
2026-04-24 09:48 42.73827 10.34348 34191 ft 471 kts 299°
2026-04-24 09:49 42.76749 10.26383 34188 ft 471 kts 299°
2026-04-24 09:49 42.79665 10.18411 34193 ft 471 kts 299°
2026-04-24 09:50 42.82578 10.10427 34190 ft 472 kts 298°
2026-04-24 09:50 42.85486 10.02431 34194 ft 472 kts 298°
2026-04-24 09:51 42.86950 9.98402 33674 ft 478 kts 298°
2026-04-24 09:51 42.88408 9.94377 33277 ft 471 kts 298°
2026-04-24 09:51 42.89849 9.90392 32799 ft 467 kts 298°
2026-04-24 09:51 42.91275 9.86443 32353 ft 463 kts 298°
2026-04-24 09:52 42.92688 9.82529 31901 ft 459 kts 298°
2026-04-24 09:52 42.94088 9.78648 31476 ft 455 kts 298°
2026-04-24 09:52 42.95474 9.74797 31057 ft 451 kts 298°
2026-04-24 09:52 42.96823 9.70956 30626 ft 448 kts 297°
2026-04-24 09:53 42.98136 9.67121 30197 ft 445 kts 297°
2026-04-24 09:53 42.99428 9.63305 29705 ft 442 kts 297°
2026-04-24 09:53 43.00707 9.59518 29243 ft 438 kts 297°
2026-04-24 09:53 43.01974 9.55766 28804 ft 434 kts 297°
2026-04-24 09:54 43.03232 9.52048 28383 ft 430 kts 297°
2026-04-24 09:54 43.04480 9.48363 27932 ft 426 kts 297°
2026-04-24 09:54 43.05719 9.44707 27490 ft 423 kts 297°
2026-04-24 09:54 43.06947 9.41077 27079 ft 420 kts 297°
2026-04-24 09:55 43.08167 9.37471 26664 ft 417 kts 297°
2026-04-24 09:55 43.09378 9.33886 26251 ft 415 kts 297°
2026-04-24 09:55 43.10583 9.30312 25839 ft 414 kts 297°
2026-04-24 09:55 43.11783 9.26750 25413 ft 413 kts 297°
2026-04-24 09:56 43.12988 9.23171 25009 ft 417 kts 297°
2026-04-24 09:56 43.14206 9.19549 24560 ft 420 kts 297°
2026-04-24 09:56 43.15422 9.15923 24126 ft 419 kts 297°
2026-04-24 09:56 43.16632 9.12307 23666 ft 418 kts 297°
2026-04-24 09:57 43.17837 9.08705 23181 ft 415 kts 297°
2026-04-24 09:57 43.19031 9.05128 22741 ft 412 kts 297°
2026-04-24 09:57 43.20214 9.01580 22307 ft 408 kts 296°
2026-04-24 09:57 43.21387 8.98061 21876 ft 405 kts 296°
2026-04-24 09:58 43.22546 8.94576 21474 ft 401 kts 296°
2026-04-24 09:58 43.23694 8.91122 21063 ft 397 kts 296°
2026-04-24 09:58 43.24830 8.87700 20655 ft 393 kts 296°
2026-04-24 09:58 43.25954 8.84308 20255 ft 390 kts 296°
2026-04-24 09:59 43.27067 8.80947 19856 ft 386 kts 296°
2026-04-24 09:59 43.28168 8.77615 19460 ft 382 kts 296°
2026-04-24 09:59 43.29259 8.74314 19071 ft 379 kts 296°
2026-04-24 09:59 43.30338 8.71041 18668 ft 376 kts 296°
2026-04-24 10:00 43.31409 8.67792 18242 ft 373 kts 296°
2026-04-24 10:00 43.32471 8.64568 17802 ft 370 kts 296°
2026-04-24 10:00 43.33515 8.61367 17387 ft 367 kts 294°
2026-04-24 10:00 43.34079 8.57980 17017 ft 366 kts 272°
2026-04-24 10:01 43.33930 8.54528 16727 ft 361 kts 265°
2026-04-24 10:01 43.33639 8.51133 16390 ft 357 kts 264°
2026-04-24 10:01 43.33323 8.47781 16067 ft 353 kts 264°
2026-04-24 10:01 43.33014 8.44457 15757 ft 351 kts 264°
2026-04-24 10:02 43.32716 8.41146 15449 ft 349 kts 264°
2026-04-24 10:02 43.32428 8.37848 15143 ft 348 kts 265°
2026-04-24 10:02 43.32147 8.34562 14839 ft 346 kts 265°
2026-04-24 10:02 43.31869 8.31289 14530 ft 345 kts 265°
2026-04-24 10:03 43.31593 8.28028 14229 ft 344 kts 265°
2026-04-24 10:03 43.31318 8.24778 13918 ft 343 kts 265°
2026-04-24 10:03 43.31043 8.21537 13584 ft 342 kts 265°
2026-04-24 10:03 43.30768 8.18311 13267 ft 340 kts 265°
2026-04-24 10:04 43.30493 8.15100 12950 ft 338 kts 265°
2026-04-24 10:04 43.30258 8.11905 12643 ft 336 kts 271°
2026-04-24 10:04 43.30684 8.08811 12345 ft 329 kts 294°
2026-04-24 10:04 43.31731 8.06055 12082 ft 325 kts 302°
2026-04-24 10:05 43.32870 8.03393 11786 ft 323 kts 302°
2026-04-24 10:05 43.34003 8.00742 11499 ft 322 kts 302°
2026-04-24 10:05 43.35116 7.98092 11210 ft 319 kts 302°
2026-04-24 10:05 43.36205 7.95467 10917 ft 315 kts 301°
2026-04-24 10:06 43.37275 7.92875 10641 ft 308 kts 301°
2026-04-24 10:06 43.39318 7.87916 10134 ft 288 kts 301°
2026-04-24 10:06 43.40277 7.85585 9886 ft 279 kts 301°
2026-04-24 10:07 43.41226 7.83277 9482 ft 276 kts 301°
2026-04-24 10:07 43.42155 7.81017 9190 ft 269 kts 301°
2026-04-24 10:07 43.43075 7.78779 8946 ft 270 kts 301°
2026-04-24 10:07 43.44000 7.76524 8702 ft 273 kts 300°
2026-04-24 10:08 43.44940 7.74234 8448 ft 277 kts 300°
2026-04-24 10:08 43.45886 7.71927 8200 ft 278 kts 300°
2026-04-24 10:08 43.46827 7.69628 7944 ft 275 kts 299°
2026-04-24 10:08 43.47756 7.67357 7749 ft 269 kts 299°
2026-04-24 10:09 43.48674 7.65168 7606 ft 261 kts 307°
2026-04-24 10:09 43.50077 7.63755 7461 ft 248 kts 346°
2026-04-24 10:09 43.51698 7.63867 7388 ft 228 kts 22°
2026-04-24 10:09 43.53115 7.64708 7312 ft 219 kts 23°
2026-04-24 10:10 43.54505 7.65469 7106 ft 212 kts 21°
2026-04-24 10:10 43.55862 7.66126 6890 ft 203 kts 18°
2026-04-24 10:10 43.57202 7.66688 6689 ft 201 kts 16°
2026-04-24 10:10 43.58539 7.67172 6483 ft 197 kts 13°
2026-04-24 10:11 43.59882 7.67420 6276 ft 195 kts 353°
2026-04-24 10:11 43.61149 7.66888 6081 ft 191 kts 327°
2026-04-24 10:11 43.62148 7.65701 5911 ft 190 kts 308°
2026-04-24 10:11 43.62873 7.64216 5597 ft 183 kts 298°
2026-04-24 10:12 43.63478 7.62764 5410 ft 168 kts 297°
2026-04-24 10:12 43.64039 7.61413 5262 ft 163 kts 297°
2026-04-24 10:12 43.64600 7.60063 5054 ft 160 kts 297°
2026-04-24 10:12 43.65148 7.58754 4870 ft 156 kts 298°
2026-04-24 10:13 43.65684 7.57462 4688 ft 156 kts 296°
2026-04-24 10:13 43.65914 7.56029 4516 ft 154 kts 268°
2026-04-24 10:13 43.65909 7.54557 4360 ft 155 kts 269°
2026-04-24 10:13 43.65917 7.53071 4194 ft 155 kts 270°
2026-04-24 10:14 43.65924 7.51578 4027 ft 156 kts 270°
2026-04-24 10:14 43.65931 7.50083 3847 ft 157 kts 269°
2026-04-24 10:14 43.65937 7.48579 3643 ft 157 kts 269°
2026-04-24 10:14 43.65942 7.47073 3443 ft 157 kts 270°
2026-04-24 10:15 43.65946 7.45574 3232 ft 156 kts 269°
2026-04-24 10:15 43.65951 7.44083 3024 ft 155 kts 270°
2026-04-24 10:15 43.65954 7.42616 2813 ft 152 kts 269°
2026-04-24 10:15 43.65956 7.41162 2625 ft 152 kts 269°
2026-04-24 10:16 43.65959 7.39697 2426 ft 153 kts 269°
2026-04-24 10:16 43.65961 7.38236 2227 ft 152 kts 268°
2026-04-24 10:16 43.65962 7.36776 2017 ft 152 kts 268°
2026-04-24 10:16 43.65938 7.35317 1785 ft 153 kts 266°
2026-04-24 10:17 43.65959 7.33855 1571 ft 152 kts 272°
2026-04-24 10:17 43.66132 7.32434 1441 ft 151 kts 282°
2026-04-24 10:17 43.66530 7.31076 1288 ft 155 kts 297°
2026-04-24 10:17 43.67133 7.29850 1151 ft 155 kts 306°
2026-04-24 10:18 43.67822 7.28717 985 ft 155 kts 310°
2026-04-24 10:18 43.68557 7.27609 748 ft 159 kts 311°
2026-04-24 10:18 43.68957 7.26268 570 ft 154 kts 256°
2026-04-24 10:18 43.68513 7.24937 373 ft 152 kts 226°
2026-04-24 10:19 43.67764 7.23942 242 ft 146 kts 225°
2026-04-24 10:19 43.67054 7.22971 68 ft 141 kts 221°
2026-04-24 10:19 43.66380 7.22059 23 ft 126 kts 224°
2026-04-24 10:19 43.65910 7.21416 21 ft 64 kts 225°
2026-04-24 10:20 43.65732 7.21164 22 ft 22 kts 226°
2026-04-24 10:20 43.65634 7.21013 23 ft 20 kts 245°
2026-04-24 10:20 43.65674 7.20900 21 ft 9 kts 344°
2026-04-24 10:20 43.65725 7.20886 21 ft 9 kts 348°
2026-04-24 10:21 43.65761 7.20876 21 ft 9 kts 350°
2026-04-24 10:21 43.65821 7.20861 21 ft 9 kts 349°
2026-04-24 10:21 43.65878 7.20847 21 ft 8 kts 352°
2026-04-24 10:21 43.65935 7.20836 21 ft 8 kts 352°
2026-04-24 10:22 43.65990 7.20826 21 ft 8 kts 352°
2026-04-24 10:22 43.66043 7.20813 21 ft 8 kts 348°
2026-04-24 10:22 43.66094 7.20800 21 ft 7 kts 351°
2026-04-24 10:22 43.66144 7.20790 21 ft 7 kts 351°
2026-04-24 10:23 43.66180 7.20757 21 ft 7 kts 278°
2026-04-24 10:23 43.66173 7.20695 21 ft 5 kts 260°
2026-04-24 10:23 43.66171 7.20676 23 ft 0 kts 260°